CAPE
0 0 17 74 100 274 152 81 309 73 55 30 18 158 127 325 299 342 119 413 431 478 714 811 1087 1358 1385 1368 1330 1982 1836 1945 1833 1672 1632 1832 1993 1735 1484 1872 1631 819 1100 1170 1242 1403 1255 1449 1935
0 0 148 289 105 68 25 386 101 41 35 91 114 227 324 340 200 183 375 434 341 375 536 845 1316 1594 1567 1821 1980 1841 1663 1625 1583 1741 2095 2076 1861 1221 1849 1895 1348 992 928 1032 1638 1421 1399 1651 1771
93 151 79 229 402 35 124 184 73 96 158 89 400 492 307 182 263 218 224 274 367 424 809 1267 1499 1794 2002 1969 2103 2109 2059 1997 1787 1730 1810 1949 1228 1804 1648 1787 1673 1741 948 938 1388 1584 1483 1533 1623
312 196 188 282 271 216 376 488 139 105 289 324 243 329 157 283 189 181 222 270 336 685 955 1016 1916 1702 1832 1839 1952 1952 1754 1720 1631 1556 1568 1541 1485 1945 1806 1830 1567 1576 1481 1389 1367 1216 1134 1042 1397
138 318 201 587 188 498 328 440 135 31 226 387 470 245 110 222 185 219 299 252 323 355 720 1222 1539 1741 1800 1914 1898 1853 1714 1629 1566 1504 1707 1719 1771 1776 1669 1612 1575 1534 1399 1388 1034 1236 1258 1285 1181
243 495 259 336 304 154 204 254 217 170 308 488 386 126 117 154 243 235 230 269 293 172 240 910 1556 1858 1697 1227 1201 1235 1575 1595 1615 1678 1654 1649 1580 1693 1563 1306 1348 1488 1439 1372 1255 1315 1312 1241 1029
1 293 239 223 307 408 680 492 330 481 372 575 420 354 185 240 351 222 125 194 7 10 481 944 1294 1368 1376 1530 1791 1801 1449 1703 1643 1453 1386 1437 1457 1609 1603 1561 1396 1338 1309 1271 1163 1127 1216 990 722
1 29 18 231 172 35 524 545 572 334 270 445 610 408 148 111 265 307 280 25 0 162 497 806 1271 726 1253 1346 1608 1569 1525 1635 1553 1406 1601 1500 1702 1579 1318 1230 1383 1394 1224 1185 1076 1189 1122 610 458
20 9 20 208 158 70 525 682 306 73 328 530 585 473 194 62 166 428 391 6 10 6 292 198 488 606 1139 1282 1436 1537 1558 1569 1521 1537 1467 1106 1300 1522 1511 1137 1353 1234 1211 1149 1121 1194 1062 1249 1048
4 17 71 89 26 10 56 409 0 138 584 571 572 439 231 141 117 271 32 8 0 67 268 176 112 405 827 829 1088 1302 1149 1198 1308 1388 1201 635 877 1358 803 1009 1252 1066 938 984 920 518 385 987 657
5 0 0 0 6 43 133 163 674 521 496 380 552 279 260 144 112 103 14 13 13 6 167 255 554 453 525 716 1284 1529 1099 1391 1422 1276 1279 1286 1456 1029 922 970 976 823 764 651 873 139 41 626 858
1 0 13 0 4 209 401 358 117 196 241 385 391 250 229 125 140 15 11 5 12 15 60 261 350 599 635 972 1342 743 916 1393 619 1064 1334 1040 1169 263 129 901 1343 1164 1041 936 661 532 732 768 598
0 0 0 7 38 406 164 79 44 20 322 382 335 160 155 118 59 15 12 7 8 17 27 439 512 309 167 862 595 721 648 586 985 644 1062 127 855 1167 1149 1286 449 703 871 687 81 848 1043 791 930
0 0 0 3 203 459 341 116 211 319 454 498 344 113 173 97 89 20 9 5 6 8 43 349 414 843 729 959 698 653 532 890 947 770 1234 965 1010 1667 1330 1371 834 432 174 550 557 105 375 899 947
0 0 0 0 0 179 283 198 273 341 283 388 351 193 186 170 85 33 10 0 0 4 63 238 311 623 566 1101 893 726 131 671 1371 1759 1572 892 483 1067 1660 1471 1337 906 814 540 881 265 744 50 30
0 0 0 0 0 11 131 298 282 302 155 366 406 271 203 130 217 81 48 3 0 6 53 216 95 468 555 1095 596 863 468 1057 743 937 1431 686 484 1805 1606 1419 1294 1346 551 1002 1074 502 661 248 254
0 0 0 0 0 0 6 219 712 322 368 476 358 360 237 174 297 236 121 56 4 10 48 180 299 375 468 1033 554 855 479 786 1187 891 522 1524 1643 1583 1777 1464 1191 1291 1162 745 1134 127 90 748 526
0 0 0 0 0 0 0 230 374 64 121 202 473 352 292 251 260 368 144 93 0 2 43 264 320 475 564 814 714 959 843 825 681 1265 1185 1545 1862 1524 1483 1788 1124 1538 731 617 872 476 313 104 200
0 0 0 0 0 0 0 163 75 0 0 0 429 372 358 278 290 281 188 109 0 0 30 314 163 551 543 612 626 751 538 944 708 901 1636 1666 1366 1618 1558 1540 1542 1587 296 545 1250 1179 832 957 89
0 0 0 0 0 0 29 208 50 1 3 0 88 426 342 348 267 309 206 149 21 0 74 114 209 499 342 932 617 667 837 612 808 1197 1342 951 1576 1667 1444 884 1391 1112 1282 1321 818 428 444 704 30
0 0 0 0 0 0 20 258 53 0 27 130 350 476 337 435 317 333 199 186 64 2 215 51 512 679 410 562 361 464 515 690 457 1471 1231 1535 1328 1770 1637 1482 1149 1384 1527 1123 1332 1226 1174 856 51
0 0 0 0 0 0 0 0 261 45 5 450 515 219 248 226 465 400 211 312 109 39 268 262 599 803 241 457 173 227 462 611 407 349 1452 1311 1563 1681 1604 1728 1562 1728 1103 1107 1192 1254 830 589 814
0 0 0 0 0 0 0 0 6 559 334 32 0 295 226 25 431 428 443 318 206 133 259 493 415 951 320 225 481 266 496 304 1057 628 703 1468 1391 1661 1468 1269 1716 1840 1518 1290 1359 1648 1378 877 985
0 0 0 0 0 0 0 0 0 303 99 1 3 320 408 80 116 410 537 390 392 229 175 523 476 701 519 89 519 427 262 685 470 469 1068 1487 1163 1380 1553 1840 1670 1775 1386 1367 1803 1648 1331 1774 1620
0 0 0 0 0 0 0 0 0 33 300 34 18 442 494 311 172 371 397 537 464 341 174 398 578 495 623 470 182 1045 178 384 866 298 1252 642 1310 1155 1151 1663 1849 1513 1534 1515 1869 1630 1938 1739 1640
0 0 0 0 0 0 0 0 0 0 0 431 589 498 573 594 253 411 589 597 584 617 303 263 735 617 665 820 31 411 950 273 565 1154 210 749 575 767 1296 1232 1866 1737 1588 1579 1809 1738 1860 1861 1457
0 0 0 0 0 0 0 0 0 0 0 7 11 107 275 29 539 482 722 728 812 722 695 356 776 885 830 572 790 107 1226 1196 424 774 1156 307 462 937 1510 1434 1797 1568 1813 1625 1817 1594 1512 1783 1832
0 0 0 0 0 0 0 0 0 0 0 39 52 9 20 46 68 640 599 780 837 818 952 772 834 1061 1096 728 860 498 355 900 696 93 1029 1108 1359 690 1697 1990 1737 1565 1941 1682 2025 1597 1770 1758 1702
9 0 0 1 0 0 0 0 0 0 0 0 134 40 0 13 51 568 781 698 825 951 948 1151 949 1292 1455 1352 842 701 567 494 234 809 621 1259 894 1112 1312 1323 1224 1597 1462 1773 1744 1624 1884 1728 2004
5 1 0 9 1 1 0 0 17 2 0 0 0 106 30 2 26 23 492 838 882 972 1034 1251 1237 1440 1585 1553 1241 830 817 611 468 57 1560 1558 1953 1920 2000 1443 2021 1392 1394 1429 1677 1867 1386 1624 1967
CIN
0 0 -42 -40 -9 -1 -3 -12 -27 -5 -15 -15 -26 -8 -38 -16 -11 -13 -82 -7 -4 -3 -24 -12 -1 -2 -5 -13 -15 0 0 0 0 0 0 0 0 0 -4 0 0 -21 -5 -1 0 0 -1 0 0
0 -1 -5 -1 -19 -31 -9 -6 -8 -25 -33 -7 -18 -8 -11 -12 -75 -83 -14 -6 -5 -15 -23 -7 -1 -1 -2 0 0 0 0 0 0 0 0 0 0 -11 -1 0 -1 -16 -17 -4 0 0 0 0 -1
-43 -12 -9 -1 0 -9 -4 -2 -15 -3 -4 -8 -7 -16 -55 -27 -34 -70 -33 -10 -1 -3 -1 -4 -2 -1 0 0 0 0 0 0 0 0 0 0 -14 0 0 0 0 0 -12 -5 0 0 0 0 -3
-6 -3 -5 -4 -2 -27 -5 -5 -31 -14 -7 -4 -17 -8 -53 -12 -32 -55 -26 -8 -6 -1 -4 -14 0 -1 0 0 0 0 0 0 0 -2 0 -1 -4 0 0 0 0 0 0 -1 -2 -5 -5 -13 -10
-3 -4 0 0 -12 -16 -15 -3 -5 -26 -12 -3 -7 -8 -33 -30 -30 -31 -27 -15 -4 -11 -15 0 -3 -1 0 0 0 0 0 0 0 -1 0 0 0 0 0 0 0 0 -1 -2 -12 -4 -5 -14 -21
-3 0 -1 -1 -7 -4 -19 -22 -12 -7 -5 -16 -8 -53 -24 -37 -40 -13 -17 -4 -7 -48 -43 -2 -1 0 0 -5 -5 0 0 0 0 0 0 -3 0 0 -2 -7 -1 0 0 0 -4 -5 -4 -15 -30
-1 0 -2 -9 -2 -4 -7 -4 -3 -9 -12 -1 -11 -23 -13 -20 -32 -14 -4 0 -14 -65 -24 -1 0 0 0 0 0 0 0 0 0 -8 -15 -16 -9 0 0 0 -3 -5 -5 -6 -14 -14 -15 -30 -45
0 -8 -33 -12 -5 -33 -9 -8 -33 -56 -12 -7 -29 -32 -28 -48 -28 -11 -4 -22 0 -31 -11 -3 -1 -9 0 0 0 -2 -2 0 -4 -19 -7 -19 -8 -10 -16 -18 -8 -7 -14 -11 -15 -18 -26 -50 -51
-2 -2 -8 -11 -18 -45 -21 -9 -79 -83 -69 -38 -13 -36 -61 -76 -14 -12 -16 -21 -118 -43 -11 -23 -16 -10 -1 -1 -1 -1 -2 -2 -15 -16 -22 -25 -14 -5 -18 -18 -25 -30 -28 -21 -15 -20 -51 -29 -38
-3 -2 -6 -59 -101 -30 -137 -15 0 -70 -21 -2 -3 -29 -61 -51 -10 -5 -4 -5 0 -58 -11 -12 -41 -17 -7 -2 -19 -14 -25 -23 -17 -15 -14 -28 -29 -3 -31 -38 -38 -47 -40 -28 -12 -89 -104 -51 -68
-2 0 0 0 -111 -78 -76 -9 -47 -36 -17 -9 -15 -61 -49 -66 -10 -8 -2 -3 -4 -7 -27 -9 -23 -21 -3 -20 -30 -15 -19 -9 -7 -7 -7 -4 -16 -28 -23 -32 -40 -49 -49 -38 -33 -148 -152 -50 -55
-2 0 -26 -9 -27 -67 -32 -28 -38 -60 -59 -53 -21 -47 -35 -64 -11 -1 -3 -2 -3 -8 -73 -31 -15 -25 -10 -22 -12 -8 -25 -9 -9 -7 -9 -22 -5 -119 -137 -31 -8 -5 -27 -8 -29 -93 -75 -62 -50
0 0 0 -70 -90 -21 -66 -91 -63 -105 -66 -82 -30 -56 -25 -46 -13 -3 -2 -2 -6 -19 -24 -13 -18 -51 -26 -8 -8 -9 -10 -8 -6 -12 -31 -51 -30 -9 -20 -9 -45 -43 -39 -45 -129 -24 -20 -32 -20
0 0 0 -26 -24 -1 -35 -54 -35 -67 -71 -44 -39 -71 -22 -17 -14 -17 -2 -1 -3 -2 -73 -16 -15 -5 -6 -13 -6 -2 -10 -8 -7 -7 -21 -44 -33 -4 -8 -7 -17 -229 -95 -54 -41 -52 -53 -26 -20
0 0 0 0 -1 -5 -2 -10 -52 -126 -38 -65 -59 -65 -24 -3 -21 -40 -1 -1 -1 -2 -60 -25 -28 -14 -9 -10 -15 -7 -17 -13 -20 -14 -15 -72 -92 -23 -6 -5 -6 -30 -46 -36 -28 -41 -43 -111 -62
0 0 0 0 0 -45 -6 -2 -32 -17 -229 -5 -9 -30 -20 -12 -3 -10 -49 -35 -37 -2 -68 -18 -31 -25 -13 -2 -16 -6 -15 -8 -25 -13 -17 -46 -69 -15 -5 -4 -7 -12 -22 -13 -16 -30 -48 -48 -35
0 0 0 0 0 0 -12 -5 -40 -132 -71 -9 -2 -2 -24 -26 -9 -5 -25 -69 -135 -46 -101 -16 -5 -22 -25 -6 -22 -16 -10 -19 -11 -19 -73 -12 -10 -9 -7 -3 -10 -11 -11 -18 -18 -86 -108 -15 -22
0 0 0 0 0 0 0 -43 -153 -182 -127 -100 -5 -2 -13 -30 -21 -3 -28 -31 0 -1 -122 -6 -2 -16 -14 -18 -19 -8 -9 -10 -17 -15 -21 -3 -8 -13 -9 -4 -12 -8 -13 -20 -10 -16 -32 -75 -49
0 0 0 0 0 0 0 -75 -188 0 0 0 -44 -4 -3 -24 -14 -7 -13 -24 0 0 -130 -5 -43 -26 -14 -31 -18 -5 -16 -4 -14 -21 -6 -2 -9 -10 -4 -6 -10 -7 -25 -28 -6 -13 -6 -9 -89
0 0 0 0 0 0 -2 -74 -191 -14 -12 0 -145 -10 -2 -5 -28 -8 -15 -26 -115 0 -107 -76 -39 -37 -47 -7 -22 -4 -4 -6 -2 -3 -8 -16 -1 -6 -12 -23 -4 -5 -10 -8 -14 -30 -33 -16 -118
0 0 0 0 0 0 -3 -74 -191 0 -81 -87 -52 -7 -4 -4 -40 -27 -31 -35 -73 -49 -94 -138 -21 -29 -47 -21 -28 -9 -8 -4 -6 -10 -16 -6 -1 -2 -6 -14 -23 -13 -12 -13 -8 -11 -22 -19 -75
0 0 0 0 0 0 0 0 -145 -172 -4 -29 -17 -54 -6 -5 -11 -32 -54 -38 -79 -124 -75 -87 -35 -34 -74 -32 -69 -41 -11 -6 -8 -33 -6 -8 -2 -2 -3 -7 -16 -10 -8 -14 -12 -8 -24 -34 -16
0 0 0 0 0 0 0 0 -4 -83 -91 -108 0 -64 -5 -58 -5 -23 -65 -72 -64 -83 -94 -71 -71 -24 -80 -82 -39 -53 -15 -11 -4 -7 -11 -10 -8 -2 -7 -11 -1 -5 -14 -10 -15 -7 -3 -28 -20
0 0 0 0 0 0 0 0 0 -49 -143 -20 -82 -81 -21 -61 -9 -2 -15 -42 -39 -64 -109 -83 -113 -72 -81 -180 -60 -47 -56 -7 -3 -5 -11 -13 -12 -3 -2 -5 -5 -5 -15 -17 -6 -18 -17 -17 -16
0 0 0 0 0 0 0 0 0 -10 -93 -69 -97 -26 -12 -29 -38 -8 -8 -25 -64 -98 -152 -134 -141 -144 -119 -115 -155 -15 -114 -40 -11 -24 -8 -13 -10 -12 -17 -2 -4 -12 -10 -5 -6 -19 -18 -24 -19
0 0 0 0 0 0 0 0 0 0 0 -39 -37 -4 -9 -10 -30 -27 -18 -36 -72 -62 -117 -149 -162 -163 -133 -103 -310 -121 -34 -85 -30 -5 -52 -3 -7 -4 -25 -26 -14 -9 -8 -7 -10 -14 -17 -16 -23
0 0 0 0 0 0 0 0 0 0 0 -22 -94 -66 -48 -220 -16 -18 -17 -32 -62 -69 -85 -146 -143 -163 -140 -155 -104 -255 -42 -28 -72 -23 -7 -60 -21 -11 -28 -34 -20 -16 -5 -9 -7 -12 -13 -4 -12
0 0 0 0 0 0 0 0 0 0 0 -9 -26 -53 -110 -118 -184 -9 -7 -22 -51 -86 -60 -73 -89 -139 -146 -172 -138 -170 -195 -86 -66 -212 -18 -9 -4 -12 -17 -23 -25 -19 -1 -2 -3 -10 -10 -12 -18
-8 0 -2 -6 -1 0 0 0 0 0 0 0 -36 -158 0 -174 -117 -70 -8 -16 -51 -61 -61 -51 -65 -88 -83 -71 -131 -146 -153 -150 -182 -67 -79 -28 -37 -28 -8 -12 -22 -13 -12 -2 -2 -8 -5 -7 -11
-35 -3 0 -8 -11 -2 0 0 -37 -39 0 0 0 -56 -70 -12 -88 -44 -92 -27 -41 -62 -64 -56 -58 -45 -83 -72 -86 -136 -128 -163 -168 -214 -17 -20 -4 -5 -10 -18 -7 -34 -30 -29 -22 -12 -18 -11 -6
Wind_Speed
19 20 18 17 16 15 12 13 17 7 7 17 18 16 19 18 16 18 29 28 30 28 29 31 30 28 20 20 28 27 27 26 25 24 23 23 23 22 22 20 19 18 17 17 18 17 14 10 6
21 20 17 16 16 13 15 18 16 6 12 14 17 17 17 18 19 28 27 29 30 27 31 29 27 25 27 28 27 26 25 23 23 24 22 24 24 24 22 20 18 16 16 17 16 21 17 8 5
21 21 18 17 17 14 15 16 18 15 15 14 15 12 15 20 25 27 30 30 28 28 22 21 21 19 7 27 26 24 24 23 24 25 25 25 25 25 24 21 17 15 13 14 19 20 17 8 4
19 19 18 17 17 15 17 18 22 12 5 9 14 15 22 25 24 29 30 28 27 23 18 21 23 18 12 17 24 23 25 25 25 26 26 26 25 26 26 25 15 7 7 7 6 12 23 10 9
18 18 20 16 13 18 17 15 13 13 12 12 16 19 24 18 27 30 26 27 28 20 21 20 15 20 20 24 23 25 25 26 26 27 27 26 26 26 26 26 24 19 9 4 8 25 25 19 8
13 17 19 16 13 16 15 18 1 15 15 13 18 22 20 24 27 29 28 29 24 22 21 20 18 18 22 24 26 26 26 26 27 27 27 27 26 27 26 26 23 22 20 19 20 23 14 17 20
21 20 21 20 12 10 12 7 8 8 17 20 23 18 22 26 26 27 29 27 21 23 19 19 18 16 23 25 26 26 26 26 26 25 25 26 26 27 27 26 25 23 23 22 19 17 19 21 21
22 24 21 17 11 27 2 18 5 5 7 22 19 15 25 28 28 29 29 25 22 19 21 19 22 21 25 26 26 26 26 25 25 25 25 25 25 26 28 28 26 24 23 20 15 14 19 25 25
12 27 17 13 14 9 17 18 6 21 19 11 14 18 24 29 30 28 31 21 20 20 23 22 23 27 24 26 25 25 25 25 25 25 25 23 20 25 26 27 26 26 26 25 23 21 22 18 15
31 31 27 22 22 3 19 16 5 7 24 14 14 20 27 30 31 28 25 19 19 21 26 23 21 24 27 20 25 26 26 25 25 24 25 25 20 21 24 24 25 26 26 25 26 21 20 6 10
33 29 17 19 28 25 23 11 14 2 21 15 17 23 29 29 31 29 23 19 17 22 26 22 22 25 28 21 27 25 24 23 22 21 21 21 21 10 11 19 23 24 24 24 5 17 23 20 20
34 32 17 2 14 28 20 18 12 17 10 7 17 24 30 29 32 29 24 20 16 22 15 17 17 15 26 24 27 23 24 23 21 21 15 10 17 23 18 18 19 19 19 20 22 19 20 17 21
31 32 30 5 23 13 11 14 14 9 10 13 19 24 29 28 30 26 23 20 16 18 11 11 10 6 30 26 23 23 22 21 18 19 18 19 17 22 19 20 18 17 12 13 16 13 20 19 15
31 26 33 12 10 6 6 6 6 18 21 17 17 22 26 27 28 23 23 19 17 18 10 8 8 2 25 17 14 17 8 17 20 21 21 21 14 15 16 12 21 6 18 21 14 18 21 17 17
32 35 27 30 27 16 8 5 10 10 16 16 16 21 23 25 25 22 22 18 16 14 8 8 9 4 16 21 16 15 14 21 8 15 18 16 16 15 13 16 12 21 14 17 22 12 11 19 22
31 36 37 31 21 23 9 10 1 4 6 13 15 20 23 25 22 21 20 19 17 14 8 9 16 12 8 19 28 23 23 16 17 19 19 19 18 15 14 15 16 21 19 19 19 21 23 18 19
32 35 37 36 18 18 18 17 6 14 15 9 14 20 20 23 23 23 21 18 15 10 10 9 9 11 14 6 29 25 7 19 21 14 16 19 19 16 14 14 15 17 19 20 21 19 22 17 20
31 31 36 33 33 15 23 14 9 3 27 24 13 19 20 23 29 22 21 17 15 11 10 8 6 11 13 9 28 25 6 24 20 22 22 21 21 19 17 17 17 14 11 11 14 22 21 18 20
36 36 34 33 27 35 16 11 10 12 22 35 32 17 23 25 26 20 20 15 14 13 11 7 8 11 8 10 31 27 23 25 23 23 23 21 19 19 17 17 19 15 16 16 14 18 18 18 19
37 37 36 34 34 29 17 12 9 15 7 35 37 18 22 27 29 26 23 17 15 15 12 10 8 10 8 3 32 29 27 27 25 18 22 18 20 19 19 19 19 17 21 19 16 15 15 13 19
33 37 35 33 31 29 29 15 15 26 23 32 33 13 21 26 29 29 26 20 15 15 13 12 9 8 7 12 33 30 30 28 27 3 17 22 20 20 17 18 18 18 18 19 19 20 16 17 20
37 31 36 36 34 37 28 44 15 12 21 20 16 24 19 21 24 27 26 24 20 14 12 12 11 9 9 7 27 33 31 29 28 5 22 20 19 20 15 16 17 18 18 17 18 19 18 17 17
37 32 32 35 38 38 41 34 27 12 13 11 14 43 25 18 24 27 28 26 20 15 14 12 12 11 10 13 17 35 34 32 28 24 15 14 19 19 13 16 16 17 18 18 17 17 18 20 16
32 35 37 36 35 45 42 40 31 19 13 12 8 28 23 17 20 24 23 22 22 17 15 14 15 13 12 16 23 9 37 33 25 26 5 9 13 19 18 16 14 15 18 17 16 17 19 19 17
31 34 38 41 42 46 38 43 39 21 16 14 11 16 18 18 20 20 23 22 22 23 20 16 17 16 15 15 19 21 26 37 31 12 7 11 12 15 16 14 12 14 16 17 15 16 19 19 19
33 33 38 41 39 42 37 46 42 42 34 19 16 17 19 19 20 20 25 23 23 23 21 18 18 17 17 16 22 13 11 40 36 23 4 5 16 14 14 14 12 13 16 18 15 16 18 18 20
36 40 37 44 42 45 40 36 42 36 30 17 15 15 22 28 20 21 20 22 23 23 23 20 18 18 17 18 16 18 13 32 32 29 26 13 29 17 10 12 13 14 16 18 16 19 18 17 20
39 36 39 43 48 51 43 42 37 34 37 22 21 22 21 52 46 22 21 20 21 22 19 18 16 18 18 18 18 17 19 19 22 24 32 30 27 27 6 11 12 15 18 20 17 19 19 16 19
32 43 43 39 44 48 44 40 34 28 30 35 20 16 9 43 48 27 21 19 17 18 19 20 18 17 19 20 18 18 18 19 23 18 12 11 34 32 7 2 5 12 18 19 21 22 23 18 17
35 39 41 41 43 43 46 41 23 22 24 29 26 16 13 16 11 51 45 17 17 17 18 20 20 17 18 20 21 20 20 18 20 24 14 13 12 8 11 4 1 8 18 18 20 20 25 22 20
Wind_Direction
142 153 159 201 160 135 333 57 57 349 351 62 81 66 69 88 101 94 111 111 115 109 112 129 129 136 174 172 118 105 103 99 95 91 82 68 60 54 46 37 31 20 16 23 29 34 21 4 319
146 146 181 190 170 236 47 78 53 340 48 58 67 59 36 36 61 101 105 111 112 105 116 111 104 95 103 117 112 105 102 91 92 96 81 84 77 70 54 37 23 17 16 24 20 50 41 359 310
195 201 233 220 286 331 59 76 81 65 59 70 51 17 11 71 89 103 109 110 106 109 94 89 87 80 42 126 102 86 87 86 91 100 104 101 93 87 69 51 30 19 11 17 35 42 35 1 277
168 214 203 198 260 84 58 84 97 64 339 45 51 23 67 90 94 106 111 110 105 99 87 92 95 76 56 63 87 80 95 95 100 108 116 109 105 93 88 80 30 349 350 349 339 14 61 16 206
150 211 229 177 113 86 89 84 79 68 54 49 53 75 83 77 102 110 106 111 110 92 93 91 75 84 79 87 79 90 91 100 105 116 111 112 104 103 104 108 128 153 184 218 6 73 106 150 209
191 217 224 189 99 99 82 100 36 85 75 57 72 87 80 102 109 115 114 117 104 96 94 91 84 77 86 94 105 108 107 104 115 114 110 111 102 104 112 116 133 143 149 148 142 129 163 158 155
189 243 257 243 110 88 85 75 78 65 95 92 96 81 103 115 115 118 124 115 95 100 91 92 86 75 92 99 112 117 115 121 112 109 106 107 106 102 107 116 127 136 140 143 151 155 150 146 152
198 249 299 228 96 227 176 104 28 247 45 114 94 85 121 126 122 123 123 109 102 96 100 95 98 94 106 112 110 116 122 113 113 110 101 107 115 102 102 109 120 130 140 153 170 177 156 133 141
192 246 208 264 341 244 166 96 300 198 106 76 86 103 122 130 135 126 136 105 102 103 110 105 107 123 104 109 107 113 123 122 119 110 109 102 147 125 102 99 110 119 121 124 142 148 142 162 176
227 248 287 313 314 291 216 243 3 309 172 76 57 100 122 132 139 133 126 111 108 112 123 111 106 111 122 89 116 125 129 129 129 117 108 99 153 143 103 121 108 110 105 106 118 145 153 216 190
233 264 315 328 268 214 189 103 112 234 137 99 99 120 130 132 138 138 127 118 111 118 127 118 108 120 129 95 134 133 141 134 133 123 121 137 138 350 196 147 120 115 112 129 148 149 136 83 153
241 239 302 52 172 201 185 253 275 121 77 2 104 124 133 133 142 140 131 123 115 123 107 103 100 95 130 119 147 123 131 140 115 117 173 224 163 93 155 161 152 128 115 95 77 156 136 139 140
258 254 250 49 252 124 313 307 294 302 84 79 108 125 136 135 144 135 131 125 121 123 112 100 93 61 168 177 182 127 118 139 83 106 57 163 163 113 133 109 114 161 353 199 141 155 142 147 158
262 273 245 285 134 23 24 8 20 139 107 95 108 129 139 141 143 134 135 130 128 129 119 109 97 92 188 221 227 150 231 80 130 123 94 129 182 164 149 182 52 237 107 135 119 153 137 165 172
261 260 272 261 262 291 336 346 349 79 107 99 110 132 139 144 142 139 137 133 133 133 127 116 108 103 227 212 226 217 222 178 348 58 77 145 172 181 184 142 162 126 160 157 134 208 214 151 138
254 246 247 263 271 272 307 300 99 64 111 97 116 133 141 146 144 140 139 138 138 137 140 125 124 114 105 205 188 193 157 155 116 166 113 127 142 167 177 156 145 112 127 157 133 120 131 163 160
257 251 242 248 266 269 273 283 279 299 272 113 128 139 143 147 151 148 145 140 140 147 144 137 128 122 119 82 177 191 57 187 130 210 171 154 142 165 175 171 166 157 137 137 133 140 135 169 153
258 257 250 256 254 265 267 274 273 211 233 244 134 145 147 153 161 150 148 144 142 147 152 152 146 129 123 106 169 195 41 163 190 141 150 146 125 144 164 147 157 185 213 188 123 132 150 151 146
256 257 259 258 263 249 270 263 260 272 274 240 208 147 153 158 158 152 152 150 149 152 155 190 154 140 134 121 177 193 153 176 154 152 141 137 130 131 168 153 148 165 170 176 182 159 164 172 162
258 256 260 262 255 260 266 252 232 268 294 194 196 148 159 157 160 161 159 157 157 157 162 173 189 152 151 181 190 196 173 187 182 153 140 118 155 119 135 150 142 149 106 132 173 186 188 198 179
261 257 259 263 266 265 261 266 257 265 277 232 193 152 157 159 161 163 164 163 164 164 169 172 200 183 173 242 195 206 199 193 193 131 121 173 151 149 95 119 127 143 144 116 134 155 175 175 169
259 266 261 263 263 258 262 253 234 247 211 231 258 248 158 165 161 165 166 167 167 175 182 184 202 206 196 207 179 208 212 207 202 121 159 139 137 147 96 98 111 128 142 112 130 139 154 171 185
259 265 265 262 261 259 253 260 270 217 203 234 271 213 182 166 168 168 169 170 170 178 186 195 197 214 204 173 241 209 206 205 199 170 129 118 138 143 102 113 113 110 146 136 157 123 118 152 182
266 263 262 262 261 253 251 255 260 243 230 241 211 184 186 170 173 171 169 168 171 177 184 189 189 203 205 178 193 187 195 215 232 218 97 104 116 151 145 121 105 111 149 139 127 137 151 170 197
262 257 255 254 252 252 255 255 256 268 228 233 211 209 187 179 174 177 170 171 170 175 179 186 188 194 193 187 177 245 175 206 225 153 124 129 130 139 140 126 107 124 138 145 111 129 183 159 189
253 254 251 252 255 256 257 252 255 256 273 208 204 200 192 192 182 180 173 173 173 172 177 188 190 200 199 197 182 202 203 207 224 250 216 290 153 149 145 137 123 126 139 152 119 133 154 149 172
253 248 256 257 259 256 258 260 257 255 261 254 249 239 242 248 193 189 182 177 173 173 175 182 194 202 206 204 211 195 213 185 238 242 246 170 203 277 128 133 134 139 143 157 142 164 156 157 163
250 254 248 252 251 251 256 256 253 252 251 252 247 262 260 233 244 196 188 185 177 176 180 184 202 203 209 207 212 212 196 188 233 200 240 236 246 227 111 129 133 142 160 168 157 167 163 146 164
254 248 251 258 250 250 252 258 266 251 252 252 248 251 249 210 229 237 197 190 187 182 183 184 195 208 215 222 215 213 208 198 189 251 211 194 204 236 285 356 102 138 162 169 176 185 197 165 156
261 256 250 251 251 250 249 249 323 306 247 249 255 233 237 260 221 234 220 189 187 186 184 183 187 203 213 224 229 226 229 216 199 193 203 202 251 249 271 220 301 143 168 169 173 177 196 187 176